• In Hungary
  • List of Countries
  • For 7 days
  • Water Temperature
  • Satellite Maps
  • Weather Map
  • News
  • Weather Widgets
  • user-avatar
    Login

    Hourly Weather Bystra

    Today, 24 September, Monday

    Time Temperature Precipitation Wind Pressure Humidity
    00:00 +12°C° 0.4 mm 8 mps 702 mmHg 79%
    01:00 +13°C° 0 mm 6 mps 702 mmHg 85%
    02:00 +10°C° 0.8 mm 7 mps 703 mmHg 85%
    03:00 +8°C° 0.8 mm 7 mps 704 mmHg 84%
    04:00 +5°C° 0.8 mm 8 mps 705 mmHg 84%
    05:00 +5°C° 0.3 mm 7 mps 706 mmHg 84%
    06:00 +4°C° 0.3 mm 7 mps 708 mmHg 84%
    07:00 +4°C° 0.3 mm 6 mps 709 mmHg 84%
    08:00 +4°C° 0.2 mm 6 mps 710 mmHg 82%
    09:00 +4°C° 0.2 mm 6 mps 711 mmHg 79%
    10:00 +5°C° 0.2 mm 7 mps 711 mmHg 77%
    11:00 +5°C° 0.2 mm 7 mps 712 mmHg 73%
    12:00 +6°C° 0.2 mm 7 mps 713 mmHg 70%
    13:00 +6°C° 0.2 mm 7 mps 713 mmHg 66%
    14:00 +6°C° 0.2 mm 7 mps 713 mmHg 65%
    15:00 +6°C° 0.2 mm 7 mps 713 mmHg 64%
    16:00 +6°C° 0.2 mm 7 mps 713 mmHg 64%
    17:00 +5°C° 0.1 mm 6 mps 713 mmHg 68%
    18:00 +5°C° 0.1 mm 5 mps 714 mmHg 72%
    19:00 +4°C° 0.1 mm 4 mps 714 mmHg 76%
    20:00 +4°C° 0 mm 4 mps 715 mmHg 77%
    21:00 +3°C° 0 mm 4 mps 715 mmHg 77%
    22:00 +3°C° 0 mm 4 mps 715 mmHg 78%
    23:00 +3°C° 0 mm 3 mps 716 mmHg 79%

    Tomorrow, 25 September, Tuesday

    Time Temperature Precipitation Wind Pressure Humidity
    00:00 +2°C° 0 mm 3 mps 716 mmHg 80%
    01:00 +2°C° 0 mm 3 mps 716 mmHg 82%
    02:00 +2°C° 0 mm 3 mps 717 mmHg 83%
    03:00 +2°C° 0 mm 3 mps 717 mmHg 84%
    04:00 +2°C° 0 mm 3 mps 718 mmHg 85%
    05:00 +2°C° 0 mm 3 mps 718 mmHg 84%
    06:00 +2°C° 0 mm 3 mps 719 mmHg 83%
    07:00 +2°C° 0 mm 3 mps 719 mmHg 82%
    08:00 +4°C° 0 mm 3 mps 720 mmHg 77%
    09:00 +5°C° 0 mm 3 mps 720 mmHg 73%
    10:00 +6°C° 0 mm 4 mps 721 mmHg 68%
    11:00 +6°C° 0.1 mm 4 mps 721 mmHg 64%
    12:00 +7°C° 0.1 mm 4 mps 721 mmHg 61%
    13:00 +8°C° 0.1 mm 4 mps 721 mmHg 57%
    14:00 +8°C° 0.1 mm 4 mps 722 mmHg 56%
    15:00 +8°C° 0.1 mm 4 mps 722 mmHg 56%
    16:00 +8°C° 0.1 mm 4 mps 722 mmHg 55%
    17:00 +7°C° 0 mm 3 mps 722 mmHg 59%
    18:00 +6°C° 0 mm 2 mps 722 mmHg 63%
    19:00 +5°C° 0 mm 2 mps 722 mmHg 67%
    20:00 +5°C° 0 mm 1 mps 723 mmHg 68%
    21:00 +4°C° 0 mm 1 mps 723 mmHg 70%
    22:00 +4°C° 0 mm 1 mps 724 mmHg 72%
    23:00 +3°C° 0 mm 1 mps 724 mmHg 73%

    Day after tomorrow, 26 September, Wednesday

    Time Temperature Precipitation Wind Pressure Humidity
    00:00 +3°C° 0 mm 1 mps 724 mmHg 75%
    01:00 +3°C° 0 mm 1 mps 724 mmHg 76%
    02:00 +3°C° 0 mm 1 mps 724 mmHg 77%
    03:00 +3°C° 0 mm 1 mps 724 mmHg 78%
    04:00 +2°C° 0 mm 1 mps 724 mmHg 79%
    05:00 +3°C° 0 mm 1 mps 724 mmHg 76%
    06:00 +4°C° 0 mm 1 mps 724 mmHg 73%
    07:00 +5°C° 0 mm 1 mps 724 mmHg 70%
    08:00 +6°C° 0 mm 2 mps 724 mmHg 62%
    09:00 +8°C° 0 mm 2 mps 725 mmHg 53%
    10:00 +10°C° 0 mm 2 mps 725 mmHg 44%
    11:00 +12°C° 0 mm 2 mps 724 mmHg 42%
    12:00 +12°C° 0 mm 3 mps 724 mmHg 40%
    13:00 +13°C° 0 mm 3 mps 723 mmHg 38%
    14:00 +12°C° 0 mm 3 mps 723 mmHg 40%
    15:00 +12°C° 0 mm 3 mps 722 mmHg 43%
    16:00 +12°C° 0 mm 3 mps 722 mmHg 46%
    17:00 +10°C° 0 mm 3 mps 721 mmHg 50%
    18:00 +9°C° 0 mm 3 mps 721 mmHg 54%
    19:00 +7°C° 0 mm 3 mps 721 mmHg 58%
    20:00 +7°C° 0 mm 3 mps 721 mmHg 57%
    21:00 +7°C° 0 mm 3 mps 721 mmHg 57%
    22:00 +7°C° 0 mm 3 mps 721 mmHg 57%
    23:00 +5°C° 0 mm 3 mps 721 mmHg 58%

    27 September, Thursday

    Time Temperature Precipitation Wind Pressure Humidity
    00:00 +5°C° 0 mm 3 mps 720 mmHg 58%
    01:00 +5°C° 0 mm 3 mps 720 mmHg 58%
    02:00 +4°C° 0 mm 3 mps 720 mmHg 58%
    03:00 +4°C° 0 mm 3 mps 719 mmHg 58%
    04:00 +4°C° 0 mm 3 mps 719 mmHg 59%
    05:00 +5°C° 0 mm 3 mps 719 mmHg 58%
    06:00 +7°C° 0 mm 3 mps 719 mmHg 57%
    07:00 +7°C° 0 mm 3 mps 719 mmHg 56%
    08:00 +9°C° 0 mm 3 mps 719 mmHg 52%
    09:00 +12°C° 0 mm 3 mps 720 mmHg 48%
    10:00 +14°C° 0 mm 3 mps 720 mmHg 44%
    11:00 +16°C° 0 mm 3 mps 720 mmHg 46%
    12:00 +17°C° 0 mm 3 mps 720 mmHg 47%
    13:00 +19°C° 0 mm 3 mps 719 mmHg 48%
    14:00 +19°C° 0 mm 3 mps 719 mmHg 52%
    15:00 +18°C° 0 mm 2 mps 719 mmHg 55%
    16:00 +18°C° 0 mm 2 mps 718 mmHg 59%
    17:00 +16°C° 0 mm 2 mps 718 mmHg 65%
    18:00 +14°C° 0 mm 2 mps 718 mmHg 70%
    19:00 +13°C° 0 mm 2 mps 718 mmHg 76%
    20:00 +12°C° 0 mm 2 mps 717 mmHg 77%
    21:00 +12°C° 0 mm 2 mps 717 mmHg 78%
    22:00 +10°C° 0 mm 2 mps 717 mmHg 79%
    23:00 +10°C° 0 mm 2 mps 717 mmHg 81%

    28 September, Friday

    Time Temperature Precipitation Wind Pressure Humidity
    00:00 +10°C° 0 mm 2 mps 716 mmHg 82%
    01:00 +10°C° 0 mm 2 mps 716 mmHg 83%
    02:00 +10°C° 0 mm 2 mps 716 mmHg 84%
    03:00 +9°C° 0 mm 2 mps 715 mmHg 84%
    04:00 +9°C° 0 mm 2 mps 715 mmHg 85%
    05:00 +10°C° 0 mm 2 mps 714 mmHg 83%
    06:00 +12°C° 0 mm 2 mps 714 mmHg 80%
    07:00 +12°C° 0 mm 2 mps 714 mmHg 78%
    08:00 +13°C° 0 mm 3 mps 714 mmHg 70%
    09:00 +17°C° 0 mm 3 mps 714 mmHg 63%
    10:00 +19°C° 0 mm 4 mps 714 mmHg 55%
    11:00 +20°C° 0 mm 4 mps 713 mmHg 53%
    12:00 +20°C° 0 mm 5 mps 713 mmHg 51%
    13:00 +21°C° 0 mm 5 mps 713 mmHg 48%
    14:00 +20°C° 0 mm 4 mps 712 mmHg 50%
    15:00 +20°C° 0 mm 4 mps 712 mmHg 52%
    16:00 +19°C° 0 mm 3 mps 711 mmHg 54%
    17:00 +17°C° 0 mm 3 mps 711 mmHg 60%
    18:00 +15°C° 0 mm 2 mps 711 mmHg 66%
    19:00 +13°C° 0 mm 2 mps 710 mmHg 72%
    20:00 +12°C° 0 mm 2 mps 710 mmHg 73%
    21:00 +12°C° 0 mm 2 mps 711 mmHg 75%
    22:00 +10°C° 0 mm 2 mps 711 mmHg 77%
    23:00 +10°C° 0 mm 2 mps 711 mmHg 80%

    29 September, Saturday

    Time Temperature Precipitation Wind Pressure Humidity
    00:00 +9°C° 0 mm 2 mps 711 mmHg 82%
    01:00 +9°C° 0 mm 2 mps 711 mmHg 84%
    02:00 +9°C° 0.1 mm 3 mps 711 mmHg 83%
    03:00 +8°C° 0.1 mm 3 mps 712 mmHg 81%
    04:00 +8°C° 0.1 mm 3 mps 712 mmHg 80%
    05:00 +8°C° 0.1 mm 3 mps 712 mmHg 80%
    06:00 +7°C° 0.1 mm 3 mps 713 mmHg 80%
    07:00 +6°C° 0.1 mm 4 mps 713 mmHg 80%
    08:00 +6°C° 0.1 mm 4 mps 714 mmHg 77%
    09:00 +7°C° 0.1 mm 4 mps 714 mmHg 73%
    10:00 +8°C° 0.1 mm 4 mps 715 mmHg 69%
    11:00 +10°C° 0.3 mm 4 mps 715 mmHg 66%
    12:00 +9°C° 0.3 mm 5 mps 715 mmHg 63%
    13:00 +10°C° 0.3 mm 5 mps 715 mmHg 60%
    14:00 +10°C° 0.2 mm 5 mps 715 mmHg 61%
    15:00 +9°C° 0.2 mm 5 mps 716 mmHg 61%
    16:00 +10°C° 0.2 mm 4 mps 716 mmHg 61%
    17:00 +8°C° 0 mm 4 mps 716 mmHg 64%
    18:00 +8°C° 0 mm 3 mps 717 mmHg 66%
    19:00 +5°C° 0 mm 3 mps 717 mmHg 68%
    20:00 +5°C° 0 mm 3 mps 717 mmHg 69%
    21:00 +5°C° 0 mm 2 mps 718 mmHg 69%
    22:00 +4°C° 0 mm 2 mps 718 mmHg 69%
    23:00 +3°C° 0 mm 2 mps 718 mmHg 70%
    Show more